| time (UTC) | temp F | wind direction | speed knots | gust knots | rain 1hr in | rain 24hr in | rain mn in | humidity % | barometer mb |
| 20260510081619 | 75 | 0 | 0.0 | 0.0 | 0.00 | 0.04 | 0.00 | 88 | 1011.4 |
| 20260510080058 | 75 | 0 | 0.0 | 1.7 | 0.00 | 0.04 | 0.00 | 87 | 1011.3 |
| 20260510074600 | 75 | 0 | 0.0 | 3.5 | 0.00 | 0.04 | 0.00 | 87 | 1011.2 |
| 20260510073100 | 76 | 181 | 0.0 | 6.1 | 0.00 | 0.04 | 0.00 | 87 | 1011.2 |
| 20260510071557 | 76 | 0 | 0.9 | 7.0 | 0.00 | 0.04 | 0.00 | 87 | 1011.3 |
| 20260510070059 | 76 | 0 | 0.0 | 4.3 | 0.00 | 0.04 | 0.00 | 87 | 1011.5 |
| 20260510064603 | 76 | 163 | 0.0 | 5.2 | 0.00 | 0.04 | 0.00 | 87 | 1011.5 |
| 20260510063059 | 77 | 163 | 0.0 | 6.1 | 0.00 | 0.04 | 0.00 | 87 | 1011.4 |
| 20260510061605 | 77 | 194 | 0.0 | 3.5 | 0.00 | 0.04 | 0.00 | 86 | 1011.5 |
| 20260510060059 | 77 | 0 | 0.0 | 4.3 | 0.00 | 0.04 | 0.00 | 86 | 1011.6 |
| 20260510054603 | 77 | 0 | 0.0 | 4.3 | 0.00 | 0.04 | 0.00 | 86 | 1011.7 |
| 20260510053101 | 77 | 126 | 0.9 | 7.8 | 0.00 | 0.04 | 0.00 | 85 | 1011.7 |
| 20260510051601 | 78 | 0 | 0.9 | 5.2 | 0.00 | 0.04 | 0.00 | 85 | 1011.8 |
| 20260510050059 | 78 | 0 | 0.0 | 4.3 | 0.00 | 0.04 | 0.00 | 84 | 1011.7 |
| 20260510044559 | 78 | 0 | 0.0 | 3.5 | 0.00 | 0.04 | 0.04 | 84 | 1011.8 |
| 20260510043111 | 78 | 0 | 0.0 | 5.2 | 0.00 | 0.04 | 0.04 | 83 | 1012.0 |
| 20260510041604 | 79 | 0 | 0.9 | 5.2 | 0.00 | 0.04 | 0.04 | 82 | 1012.2 |
| 20260510040107 | 79 | 133 | 0.9 | 3.5 | 0.00 | 0.04 | 0.04 | 81 | 1011.6 |
| 20260510034602 | 79 | 0 | 0.9 | 5.2 | 0.00 | 0.04 | 0.04 | 81 | 1011.9 |
| 20260510033108 | 80 | 94 | 1.7 | 7.0 | 0.00 | 0.04 | 0.04 | 80 | 1012.0 |
| 20260510031606 | 81 | 134 | 1.7 | 7.8 | 0.00 | 0.04 | 0.04 | 78 | 1012.0 |
| 20260510030103 | 81 | 56 | 4.3 | 11.3 | 0.00 | 0.04 | 0.04 | 74 | 1011.9 |
| 20260510024601 | 80 | 0 | 0.0 | 6.1 | 0.00 | 0.04 | 0.04 | 70 | 1011.6 |
| 20260510023057 | 79 | 119 | 0.0 | 6.1 | 0.00 | 0.04 | 0.04 | 70 | 1011.2 |
| 20260510021559 | 78 | 0 | 0.0 | 0.0 | 0.00 | 0.04 | 0.04 | 73 | 1010.8 |
| 20260510020058 | 77 | 0 | 0.0 | 0.0 | 0.00 | 0.04 | 0.04 | 78 | 1010.4 |
| 20260510014601 | 78 | 0 | 0.0 | 0.0 | 0.00 | 0.04 | 0.04 | 80 | 1010.0 |
| 20260510013111 | 78 | 0 | 0.0 | 0.0 | 0.00 | 0.04 | 0.04 | 78 | 1009.6 |
| 20260510011600 | 77 | 0 | 0.0 | 0.0 | 0.00 | 0.04 | 0.04 | 76 | 1009.6 |
| 20260510010058 | 77 | 0 | 0.0 | 2.6 | 0.00 | 0.04 | 0.04 | 75 | 1009.3 |
| 20260510004604 | 78 | 0 | 0.0 | 0.0 | 0.01 | 0.04 | 0.04 | 74 | 1008.7 |
| 20260510003105 | 80 | 286 | 3.5 | 9.6 | 0.04 | 0.04 | 0.04 | 72 | 1009.0 |
| 20260510001600 | 83 | 0 | 0.0 | 0.0 | 0.04 | 0.04 | 0.04 | 76 | 1009.1 |
| 20260510000100 | 85 | 0 | 0.0 | 0.0 | 0.04 | 0.04 | 0.04 | 69 | 1009.0 |
| 20260509234602 | 88 | 215 | 2.6 | 7.8 | 0.03 | 0.03 | 0.03 | 61 | 1008.4 |
| 20260509233112 | 91 | 178 | 1.7 | 7.8 | 0.00 | 0.00 | 0.00 | 49 | 1008.4 |
| 20260509231605 | 92 | 180 | 0.9 | 7.0 | 0.00 | 0.00 | 0.00 | 47 | 1008.2 |
| 20260509224600 | 91 | 0 | 0.9 | 4.3 | 0.00 | 0.00 | 0.00 | 51 | 1008.0 |
| 20260509223059 | 92 | 58 | 1.7 | 5.2 | 0.00 | 0.00 | 0.00 | 51 | 1008.0 |
| 20260509221600 | 92 | 0 | 0.0 | 3.5 | 0.00 | 0.00 | 0.00 | 50 | 1008.0 |
| 20260509220058 | 92 | 53 | 0.9 | 5.2 | 0.00 | 0.00 | 0.00 | 49 | 1007.9 |
| 20260509214559 | 92 | 0 | 0.0 | 7.8 | 0.00 | 0.00 | 0.00 | 49 | 1007.9 |
| 20260509213101 | 93 | 290 | 0.0 | 4.3 | 0.00 | 0.00 | 0.00 | 49 | 1008.0 |
| 20260509211557 | 92 | 0 | 0.0 | 5.2 | 0.00 | 0.00 | 0.00 | 50 | 1008.0 |
| 20260509210108 | 93 | 46 | 0.0 | 6.1 | 0.00 | 0.00 | 0.00 | 50 | 1008.3 |
| 20260509204604 | 92 | 0 | 0.9 | 6.1 | 0.00 | 0.00 | 0.00 | 50 | 1008.5 |
| 20260509203101 | 90 | 294 | 0.9 | 7.8 | 0.00 | 0.00 | 0.00 | 53 | 1008.7 |
| 20260509201600 | 91 | 306 | 0.9 | 7.0 | 0.00 | 0.00 | 0.00 | 55 | 1008.7 |
| 20260509200109 | 90 | 101 | 0.9 | 7.0 | 0.00 | 0.00 | 0.00 | 55 | 1008.9 |
| 20260509194559 | 91 | 34 | 0.9 | 4.3 | 0.00 | 0.00 | 0.00 | 52 | 1009.0 |
| 20260509193102 | 90 | 0 | 0.9 | 3.5 | 0.00 | 0.00 | 0.00 | 58 | 1009.1 |
| 20260509191606 | 89 | 37 | 0.0 | 7.8 | 0.00 | 0.00 | 0.00 | 58 | 1009.2 |
| 20260509184701 | 88 | 138 | 0.9 | 4.3 | 0.00 | 0.04 | 0.00 | 57 | 1009.3 |
| 20260509183110 | 88 | 0 | 1.7 | 4.3 | 0.00 | 0.04 | 0.00 | 62 | 1009.7 |
| 20260509181558 | 86 | 227 | 1.7 | 6.1 | 0.00 | 0.04 | 0.00 | 63 | 1010.0 |
| 20260509180110 | 86 | 193 | 2.6 | 8.7 | 0.00 | 0.04 | 0.00 | 65 | 1010.5 |
| 20260509174558 | 86 | 205 | 5.2 | 10.4 | 0.00 | 0.07 | 0.00 | 66 | 1010.5 |
| 20260509173102 | 86 | 179 | 3.5 | 9.6 | 0.00 | 0.07 | 0.00 | 68 | 1010.7 |
| 20260509171558 | 84 | 0 | 0.9 | 5.2 | 0.00 | 0.07 | 0.00 | 72 | 1011.0 |
| 20260509164559 | 81 | 123 | 0.0 | 2.6 | 0.00 | 0.07 | 0.00 | 80 | 1011.1 |
| 20260509163111 | 81 | 118 | 1.7 | 2.6 | 0.00 | 0.07 | 0.00 | 80 | 1011.1 |
| 20260509161603 | 81 | 0 | 0.0 | 0.0 | 0.00 | 0.07 | 0.00 | 81 | 1011.1 |
| 20260509160108 | 80 | 0 | 0.0 | 1.7 | 0.00 | 0.07 | 0.00 | 82 | 1011.0 |
| 20260509154611 | 80 | 0 | 0.0 | 2.6 | 0.00 | 0.07 | 0.00 | 83 | 1011.0 |
| 20260509153112 | 80 | 0 | 0.0 | 3.5 | 0.00 | 0.07 | 0.00 | 85 | 1010.8 |
| 20260509151603 | 79 | 146 | 0.0 | 1.7 | 0.00 | 0.07 | 0.00 | 89 | 1010.9 |
| 20260509150059 | 78 | 0 | 0.0 | 0.0 | 0.00 | 0.07 | 0.00 | 91 | 1010.9 |
| 20260509144600 | 77 | 0 | 0.0 | 2.6 | 0.00 | 0.07 | 0.00 | 91 | 1010.8 |
| 20260509143059 | 77 | 0 | 0.0 | 0.0 | 0.00 | 0.07 | 0.00 | 92 | 1010.4 |
| 20260509141604 | 77 | 0 | 0.0 | 1.7 | 0.00 | 0.07 | 0.00 | 92 | 1010.2 |
| 20260509140103 | 77 | 0 | 0.0 | 4.3 | 0.00 | 0.07 | 0.00 | 93 | 1010.0 |
| 20260509134603 | 77 | 0 | 0.0 | 4.3 | 0.00 | 0.07 | 0.00 | 93 | 1010.3 |
| 20260509133102 | 76 | 0 | 0.0 | 0.9 | 0.00 | 0.07 | 0.00 | 93 | 1010.9 |
| 20260509131604 | 76 | 0 | 0.0 | 0.0 | 0.00 | 0.07 | 0.00 | 93 | 1011.2 |
| 20260509130107 | 76 | 0 | 0.0 | 2.6 | 0.00 | 0.07 | 0.00 | 93 | 1011.0 |
| 20260509124601 | 76 | 167 | 0.0 | 2.6 | 0.00 | 0.07 | 0.00 | 93 | 1010.9 |
| 20260509123104 | 76 | 0 | 0.0 | 0.0 | 0.00 | 0.07 | 0.00 | 93 | 1011.0 |
| 20260509121558 | 75 | 0 | 0.0 | 0.0 | 0.00 | 0.07 | 0.00 | 93 | 1010.9 |
| 20260509114601 | 75 | 0 | 0.0 | 0.0 | 0.00 | 0.07 | 0.00 | 93 | 1010.4 |
| 20260509113124 | 75 | 0 | 0.0 | 0.0 | 0.00 | 0.07 | 0.00 | 93 | 1010.7 |
| 20260509111605 | 76 | 0 | 0.0 | 0.0 | 0.00 | 0.07 | 0.00 | 93 | 1010.6 |
| 20260509110058 | 75 | 0 | 0.0 | 0.0 | 0.00 | 0.07 | 0.00 | 93 | 1010.3 |
| 20260509104600 | 75 | 0 | 0.0 | 2.6 | 0.00 | 0.07 | 0.00 | 93 | 1010.1 |
| 20260509103103 | 75 | 167 | 0.0 | 2.6 | 0.00 | 0.07 | 0.00 | 93 | 1010.2 |
| 20260509101559 | 75 | 0 | 0.0 | 0.0 | 0.00 | 0.07 | 0.00 | 92 | 1010.0 |
| 20260509100114 | 75 | 0 | 0.0 | 0.0 | 0.00 | 0.07 | 0.00 | 92 | 1010.0 |
| 20260509094604 | 75 | 0 | 0.0 | 0.0 | 0.00 | 0.07 | 0.00 | 92 | 1010.0 |
| 20260509093107 | 75 | 0 | 0.0 | 0.0 | 0.00 | 0.07 | 0.00 | 92 | 1009.9 |
| 20260509091613 | 76 | 0 | 0.0 | 0.0 | 0.00 | 0.07 | 0.00 | 92 | 1010.0 |
| 20260509090101 | 76 | 0 | 0.0 | 0.0 | 0.00 | 0.07 | 0.00 | 92 | 1010.1 |
| 20260509084600 | 76 | 0 | 0.0 | 0.0 | 0.00 | 0.07 | 0.00 | 92 | 1009.9 |
| 20260509083058 | 76 | 0 | 0.0 | 3.5 | 0.00 | 0.07 | 0.00 | 92 | 1009.8 |